Regional Weather Roundup
Issued by NWS Kansas City/Pleasant Hill, MO

Home | Current Version | Previous Version | Text Only | Print | Product List | Glossary On
Versions: 1 2 3 4 5 6 7 8 9 10 11 12 13 14 15 16 17 18 19 20 21 22 23 24 25 26 27
000
ASUS43 KEAX 241110
RWREAX

WEATHER ROUNDUP FOR EASTERN KANSAS AND NORTHWEST MISSOURI
NATIONAL WEATHER SERVICE KANSAS CITY/PLEASANT HILL MO
600 AM CDT FRI MAR 24 2017

KSZ040-057-103>105-MOZ028-029-037-043-241200-
...KANSAS CITY METROPOLITAN AREA...

CITY           SKY/WX    TMP DP  RH WIND       PRES   REMARKS
K.C. INTL      PTCLDY    67  47  48 S17G29    29.77F
K.C. DOWNTOWN  PTCLDY    69  47  45 S14G24    29.77S
LEES SUMMIT    PTCLDY    64  48  56 S13       29.80R
OLATHE - IXD   PTCLDY    67  46  47 S16G25    29.78S
OLATHE - OJC   CLEAR     67  47  48 S15G25    29.78F
LAWRENCE       PTCLDY    67  49  52 SE15G23   29.75S

$$

MOZ001>008-011>017-020>025-030>033-038>040-044>046-053-054-241200-
...NORTHERN AND CENTRAL MISSOURI...

CITY           SKY/WX    TMP DP  RH WIND       PRES   REMARKS
ST. JOSEPH     CLOUDY    66  51  58 S13       29.75F
MOSBY          PTSUNNY   64  46  52 S6        29.80S
WARRENSBURG    CLEAR     61  45  55 S9        29.82S
WHITEMAN AFB   PTCLDY    63  47  56 S13       29.82F
CLINTON        CLEAR     64  46  52 S16       29.85F
SEDALIA        CLEAR     64  48  56 S15       29.87F
WARSAW         NOT AVBL
CHILLICOTHE      N/A     61  48  62 SE7       29.83S
KIRKSVILLE     CLEAR     60  32  34 S15       29.86S

$$

MOZ041-047>049-056>058-063>065-088>090-097-241200-
...EASTERN AND SOUTHERN MISSOURI...

CITY           SKY/WX    TMP DP  RH WIND       PRES   REMARKS
ST. LOUIS INTL PTCLDY    63  50  62 S9        29.95R
SPIRIT OF STL  CLEAR     64  51  62 SW9       29.96R
COLUMBIA       CLEAR     63  49  60 S9        29.92R
JEFFERSON CITY CLEAR     71  47  42 S7        29.93R
ROLLA          CLEAR     63  48  58 S14       29.95R
OSAGE BEACH    CLEAR    N/A N/A N/A S7        29.94R
SPRINGFIELD    CLOUDY    58  46  64 SE10      29.92S
BRANSON        CLOUDY    66  48  52 S9        29.98R
JOPLIN         PTCLDY    67  42  40 S21G28    29.84F
WEST PLAINS    PTCLDY    61  50  67 S8        30.01R

$$

IAZ060-094-KSZ022-034>040-054-083-096-NEZ052-066-093-241200-
...KANSAS...SOUTHEAST NEBRASKA AND IOWA...

CITY           SKY/WX    TMP DP  RH WIND       PRES   REMARKS
TOPEKA         CLOUDY    69  47  45 S20G29    29.71F
MANHATTAN      CLOUDY    68  43  40 S15G24    29.68R
EMPORIA        CLOUDY    64  46  52 S18G25    29.72F
CHANUTE        CLOUDY    69  40  34 S21G29    29.80R
WICHITA        CLOUDY    68  42  38 S24G35    29.67F
OMAHA          CLOUDY    54  50  86 N6        29.73F
LINCOLN        LGT RAIN  55  54  96 NE16      29.73F FOG
FALLS CITY     CLOUDY    66  49  54 S9        29.72R
LAMONI         CLOUDY    59  46  62 S9        29.77S
DES MOINES     CLOUDY    57  46  66 NW9       29.76R

$$





USA.gov is the U.S. government's official web portal to all federal, state and local government web resources and services.